Time,TemperatureF,DewpointF,PressureIn,WindDirection,WindDirectionDegrees,WindSpeedMPH,WindSpeedGustMPH,Humidity,HourlyPrecipIn,Conditions,Clouds,dailyrainin,SolarRadiationWatts/m^2,SoftwareType,DateUTC
2013-03-24 00:22:00,1.0,-4.0,-100.00,North,-999,3.0,4.0,79,0.00,,,0.00,0.000000,,2013-03-24 06:22:00,
2013-03-24 00:32:00,1.0,-4.0,-100.00,North,-999,3.0,4.0,79,0.00,,,0.00,0.000000,,2013-03-24 06:32:00,
2013-03-24 00:42:00,1.0,-4.0,-100.00,North,-999,3.0,4.0,79,0.00,,,0.00,0.000000,,2013-03-24 06:42:00,
2013-03-24 00:52:00,1.0,-4.0,-100.00,North,-999,3.0,4.0,79,0.00,,,0.00,0.000000,,2013-03-24 06:52:00,
2013-03-24 01:22:00,-1.0,-6.0,-100.00,North,-999,2.0,3.0,79,0.00,,,0.00,0.000000,,2013-03-24 07:22:00,
2013-03-24 01:32:00,-1.0,-6.0,-100.00,North,-999,2.0,3.0,79,0.00,,,0.00,0.000000,,2013-03-24 07:32:00,
2013-03-24 01:42:00,-1.0,-6.0,-100.00,North,-999,2.0,3.0,79,0.00,,,0.00,0.000000,,2013-03-24 07:42:00,
2013-03-24 01:52:00,-1.0,-6.0,-100.00,North,-999,2.0,3.0,79,0.00,,,0.00,0.000000,,2013-03-24 07:52:00,
2013-03-24 02:22:00,1.0,-4.0,-100.00,North,-999,2.0,4.0,79,0.00,,,0.00,0.000000,,2013-03-24 08:22:00,
2013-03-24 02:32:00,1.0,-4.0,-100.00,North,-999,2.0,4.0,79,0.00,,,0.00,0.000000,,2013-03-24 08:32:00,
2013-03-24 02:42:00,1.0,-4.0,-100.00,North,-999,2.0,4.0,79,0.00,,,0.00,0.000000,,2013-03-24 08:42:00,
2013-03-24 02:52:00,1.0,-4.0,-100.00,North,-999,2.0,4.0,79,0.00,,,0.00,0.000000,,2013-03-24 08:52:00,
2013-03-24 03:22:00,1.0,-4.0,-100.00,North,-999,3.0,5.0,80,0.00,,,0.00,0.000000,,2013-03-24 09:22:00,
2013-03-24 03:33:00,1.0,-4.0,-100.00,North,-999,3.0,5.0,80,0.00,,,0.00,0.000000,,2013-03-24 09:33:00,
2013-03-24 03:42:00,1.0,-4.0,-100.00,North,-999,3.0,5.0,80,0.00,,,0.00,0.000000,,2013-03-24 09:42:00,
2013-03-24 03:52:00,1.0,-4.0,-100.00,North,-999,3.0,5.0,80,0.00,,,0.00,0.000000,,2013-03-24 09:52:00,
2013-03-24 04:22:00,-1.0,-5.0,-100.00,North,-999,2.0,4.0,82,0.00,,,0.00,0.000000,,2013-03-24 10:22:00,
2013-03-24 04:32:00,-1.0,-5.0,-100.00,North,-999,2.0,4.0,82,0.00,,,0.00,0.000000,,2013-03-24 10:32:00,
2013-03-24 04:42:00,-1.0,-5.0,-100.00,North,-999,2.0,4.0,82,0.00,,,0.00,0.000000,,2013-03-24 10:42:00,
2013-03-24 04:52:00,-1.0,-5.0,-100.00,North,-999,2.0,4.0,82,0.00,,,0.00,0.000000,,2013-03-24 10:52:00,
2013-03-24 05:22:00,-4.0,-9.0,-100.00,North,-999,2.0,4.0,79,0.00,,,0.00,0.000000,,2013-03-24 11:22:00,
2013-03-24 05:32:00,-4.0,-9.0,-100.00,North,-999,2.0,4.0,79,0.00,,,0.00,0.000000,,2013-03-24 11:32:00,
2013-03-24 05:42:00,-4.0,-9.0,-100.00,North,-999,2.0,4.0,79,0.00,,,0.00,0.000000,,2013-03-24 11:42:00,
2013-03-24 05:51:00,-4.0,-9.0,-100.00,North,-999,2.0,4.0,79,0.00,,,0.00,0.000000,,2013-03-24 11:51:00,
2013-03-24 06:22:00,-6.0,-11.0,-100.00,North,-999,2.0,5.0,80,0.00,,,0.00,0.000000,,2013-03-24 12:22:00,
2013-03-24 06:32:00,-6.0,-11.0,-100.00,North,-999,2.0,5.0,80,0.00,,,0.00,0.000000,,2013-03-24 12:32:00,
2013-03-24 06:42:00,-6.0,-11.0,-100.00,North,-999,2.0,5.0,80,0.00,,,0.00,0.000000,,2013-03-24 12:42:00,
2013-03-24 06:52:00,-6.0,-11.0,-100.00,North,-999,2.0,5.0,80,0.00,,,0.00,0.000000,,2013-03-24 12:52:00,
2013-03-24 07:22:00,-7.0,-12.0,-100.00,North,-999,1.0,4.0,79,0.00,,,0.00,0.000000,,2013-03-24 13:22:00,
2013-03-24 07:32:00,-7.0,-12.0,-100.00,North,-999,1.0,4.0,79,0.00,,,0.00,0.000000,,2013-03-24 13:32:00,
2013-03-24 07:42:00,-7.0,-12.0,-100.00,North,-999,1.0,4.0,79,0.00,,,0.00,0.000000,,2013-03-24 13:42:00,
2013-03-24 07:52:00,-7.0,-12.0,-100.00,North,-999,1.0,4.0,79,0.00,,,0.00,0.000000,,2013-03-24 13:52:00,
2013-03-24 08:22:00,-1.0,-6.0,-100.00,North,-999,2.0,4.0,78,0.00,,,0.00,21.000000,,2013-03-24 14:22:00,
2013-03-24 08:32:00,-1.0,-6.0,-100.00,North,-999,2.0,4.0,78,0.00,,,0.00,21.000000,,2013-03-24 14:32:00,
2013-03-24 08:42:00,-1.0,-6.0,-100.00,North,-999,2.0,4.0,78,0.00,,,0.00,21.000000,,2013-03-24 14:42:00,
2013-03-24 08:52:00,-1.0,-6.0,-100.00,North,-999,2.0,4.0,78,0.00,,,0.00,21.000000,,2013-03-24 14:52:00,
2013-03-24 09:22:00,-1.0,-8.0,-100.00,North,-999,6.0,8.0,73,0.00,,,0.00,186.000000,,2013-03-24 15:22:00,
2013-03-24 09:33:00,-1.0,-8.0,-100.00,North,-999,6.0,8.0,73,0.00,,,0.00,186.000000,,2013-03-24 15:33:00,
2013-03-24 09:43:00,-1.0,-8.0,-100.00,North,-999,6.0,8.0,73,0.00,,,0.00,186.000000,,2013-03-24 15:43:00,
2013-03-24 09:52:00,-1.0,-8.0,-100.00,North,-999,6.0,8.0,73,0.00,,,0.00,186.000000,,2013-03-24 15:52:00,
2013-03-24 10:22:00,6.0,-2.0,-100.00,North,-999,5.0,7.0,68,0.00,,,0.00,354.000000,,2013-03-24 16:22:00,
2013-03-24 10:33:00,6.0,-2.0,-100.00,North,-999,5.0,7.0,68,0.00,,,0.00,354.000000,,2013-03-24 16:33:00,
2013-03-24 10:42:00,6.0,-2.0,-100.00,North,-999,5.0,7.0,68,0.00,,,0.00,354.000000,,2013-03-24 16:42:00,
2013-03-24 10:52:00,6.0,-2.0,-100.00,North,-999,5.0,7.0,68,0.00,,,0.00,354.000000,,2013-03-24 16:52:00,
2013-03-24 11:22:00,14.0,1.0,-100.00,North,-999,3.0,6.0,55,0.00,,,0.00,519.000000,,2013-03-24 17:22:00,
2013-03-24 11:32:00,14.0,1.0,-100.00,North,-999,3.0,6.0,55,0.00,,,0.00,519.000000,,2013-03-24 17:32:00,
2013-03-24 11:42:00,14.0,1.0,-100.00,North,-999,3.0,6.0,55,0.00,,,0.00,519.000000,,2013-03-24 17:42:00,
2013-03-24 11:52:00,14.0,1.0,-100.00,North,-999,3.0,6.0,55,0.00,,,0.00,519.000000,,2013-03-24 17:52:00,
2013-03-24 12:22:00,25.0,7.0,-100.00,North,-999,2.0,4.0,45,0.00,,,0.00,659.000000,,2013-03-24 18:22:00,
2013-03-24 13:22:00,25.0,5.0,-100.00,North,-999,4.0,4.0,42,0.00,,,0.00,784.000000,,2013-03-24 19:22:00,
2013-03-24 13:32:00,25.0,5.0,-100.00,North,-999,4.0,4.0,42,0.00,,,0.00,784.000000,,2013-03-24 19:32:00,
2013-03-24 13:42:00,25.0,5.0,-100.00,North,-999,4.0,4.0,42,0.00,,,0.00,784.000000,,2013-03-24 19:42:00,
2013-03-24 13:52:00,25.0,5.0,-100.00,North,-999,4.0,4.0,42,0.00,,,0.00,784.000000,,2013-03-24 19:52:00,
2013-03-24 14:22:00,30.0,4.0,-100.00,North,-999,2.0,5.0,33,0.00,,,0.00,874.000000,,2013-03-24 20:22:00,
2013-03-24 14:32:00,30.0,4.0,-100.00,North,-999,2.0,5.0,33,0.00,,,0.00,874.000000,,2013-03-24 20:32:00,
2013-03-24 14:42:00,30.0,4.0,-100.00,North,-999,2.0,5.0,33,0.00,,,0.00,874.000000,,2013-03-24 20:42:00,
2013-03-24 14:52:00,30.0,4.0,-100.00,North,-999,2.0,5.0,33,0.00,,,0.00,874.000000,,2013-03-24 20:52:00,
2013-03-24 15:22:00,27.0,2.0,-100.00,North,-999,3.0,6.0,33,0.00,,,0.00,827.000000,,2013-03-24 21:22:00,
2013-03-24 15:33:00,27.0,2.0,-100.00,North,-999,3.0,6.0,33,0.00,,,0.00,827.000000,,2013-03-24 21:33:00,
2013-03-24 15:43:00,27.0,2.0,-100.00,North,-999,3.0,6.0,33,0.00,,,0.00,827.000000,,2013-03-24 21:43:00,
2013-03-24 15:52:00,27.0,2.0,-100.00,North,-999,3.0,6.0,33,0.00,,,0.00,827.000000,,2013-03-24 21:52:00,
2013-03-24 16:22:00,27.0,3.0,-100.00,North,-999,3.0,5.0,35,0.00,,,0.00,680.000000,,2013-03-24 22:22:00,
2013-03-24 16:33:00,27.0,3.0,-100.00,North,-999,3.0,5.0,35,0.00,,,0.00,680.000000,,2013-03-24 22:33:00,
2013-03-24 16:42:00,27.0,3.0,-100.00,North,-999,3.0,5.0,35,0.00,,,0.00,680.000000,,2013-03-24 22:42:00,
2013-03-24 16:52:00,27.0,3.0,-100.00,North,-999,3.0,5.0,35,0.00,,,0.00,680.000000,,2013-03-24 22:52:00,
2013-03-24 17:22:00,28.0,7.0,-100.00,North,-999,2.0,5.0,40,0.00,,,0.00,583.000000,,2013-03-24 23:22:00,
2013-03-24 17:32:00,28.0,7.0,-100.00,North,-999,2.0,5.0,40,0.00,,,0.00,583.000000,,2013-03-24 23:32:00,
2013-03-24 17:42:00,28.0,7.0,-100.00,North,-999,2.0,5.0,40,0.00,,,0.00,583.000000,,2013-03-24 23:42:00,
2013-03-24 17:52:00,28.0,7.0,-100.00,North,-999,2.0,5.0,40,0.00,,,0.00,583.000000,,2013-03-24 23:52:00,
2013-03-24 18:22:00,30.0,3.0,-100.00,North,-999,0.0,4.0,31,0.00,,,0.00,409.000000,,2013-03-25 00:22:00,
2013-03-24 18:32:00,30.0,3.0,-100.00,North,-999,0.0,4.0,31,0.00,,,0.00,409.000000,,2013-03-25 00:32:00,
2013-03-24 18:42:00,30.0,3.0,-100.00,North,-999,0.0,4.0,31,0.00,,,0.00,409.000000,,2013-03-25 00:42:00,
2013-03-24 18:52:00,30.0,3.0,-100.00,North,-999,0.0,4.0,31,0.00,,,0.00,409.000000,,2013-03-25 00:52:00,
2013-03-24 19:22:00,19.0,4.0,-100.00,North,-999,2.0,5.0,52,0.00,,,0.00,194.000000,,2013-03-25 01:22:00,
2013-03-24 19:32:00,19.0,4.0,-100.00,North,-999,2.0,5.0,52,0.00,,,0.00,194.000000,,2013-03-25 01:32:00,
2013-03-24 19:42:00,19.0,4.0,-100.00,North,-999,2.0,5.0,52,0.00,,,0.00,194.000000,,2013-03-25 01:42:00,
2013-03-24 19:52:00,19.0,4.0,-100.00,North,-999,2.0,5.0,52,0.00,,,0.00,194.000000,,2013-03-25 01:52:00,
2013-03-24 20:22:00,12.0,4.0,-100.00,North,-999,3.0,5.0,70,0.00,,,0.00,11.000000,,2013-03-25 02:22:00,
2013-03-24 20:42:00,12.0,4.0,-100.00,North,-999,3.0,5.0,70,0.00,,,0.00,11.000000,,2013-03-25 02:42:00,
2013-03-24 20:51:00,12.0,4.0,-100.00,North,-999,3.0,5.0,70,0.00,,,0.00,11.000000,,2013-03-25 02:51:00,
2013-03-24 21:22:00,9.0,3.0,-100.00,North,-999,3.0,5.0,76,0.00,,,0.00,0.000000,,2013-03-25 03:22:00,
2013-03-24 21:33:00,9.0,3.0,-100.00,North,-999,3.0,5.0,76,0.00,,,0.00,0.000000,,2013-03-25 03:33:00,
2013-03-24 21:42:00,9.0,3.0,-100.00,North,-999,3.0,5.0,76,0.00,,,0.00,0.000000,,2013-03-25 03:42:00,
2013-03-24 21:52:00,9.0,3.0,-100.00,North,-999,3.0,5.0,76,0.00,,,0.00,0.000000,,2013-03-25 03:52:00,
2013-03-24 22:22:00,6.0,1.0,-100.00,North,-999,1.0,6.0,78,0.00,,,0.00,0.000000,,2013-03-25 04:22:00,
2013-03-24 22:32:00,6.0,1.0,-100.00,North,-999,1.0,6.0,78,0.00,,,0.00,0.000000,,2013-03-25 04:32:00,
2013-03-24 22:42:00,6.0,1.0,-100.00,North,-999,1.0,6.0,78,0.00,,,0.00,0.000000,,2013-03-25 04:42:00,
2013-03-24 22:52:00,6.0,1.0,-100.00,North,-999,1.0,6.0,78,0.00,,,0.00,0.000000,,2013-03-25 04:52:00,
2013-03-24 23:22:00,5.0,-1.0,-100.00,North,-999,2.0,4.0,77,0.00,,,0.00,0.000000,,2013-03-25 05:22:00,
2013-03-24 23:32:00,5.0,-1.0,-100.00,North,-999,2.0,4.0,77,0.00,,,0.00,0.000000,,2013-03-25 05:32:00,
2013-03-24 23:42:00,5.0,-1.0,-100.00,North,-999,2.0,4.0,77,0.00,,,0.00,0.000000,,2013-03-25 05:42:00,
2013-03-24 23:52:00,5.0,-1.0,-100.00,North,-999,2.0,4.0,77,0.00,,,0.00,0.000000,,2013-03-25 05:52:00,